Hourly Data Report for September 04, 2017

All times are specified in Local Standard Time (LST). Add 1 hour to adjust for Daylight Saving Time where and when it is observed.

ST. PETERS
PRINCE EDWARD ISLAND

46°27'01.000" N
62°34'33.000" W
29.70 m
8300562
71310
ZSP

Download Data

Hourly Data (September 2017)
Hourly Data Report for September 4, 2017
Temp Definition
°C
Dew Point Temp Definition
°C
Rel Hum Definition
%
Wind Dir Definition
10's deg

Wind Spd Definition
km/h
Visibility Definition
km
Stn Press Definition
kPa
Hmdx Definition


Wind Chill Definition


Weather Definition


TIME
00:00 14.6 11.2 80 15 17   101.22     LegendNANA
01:00 13.5 12.0 91 14 12   101.05     LegendNANA
02:00 13.8 12.9 94 14 19   100.82     LegendNANA
03:00 14.4 13.5 94 14 21   100.61     LegendNANA
04:00 15.1 14.1 94 14 27   100.37     LegendNANA
05:00 15.5 14.4 93 14 28   100.23     LegendNANA
06:00 16.1 15.0 93 15 24   100.11     LegendNANA
07:00 16.5 15.4 93 14 21   99.99     LegendNANA
08:00 17.6 16.5 93 15 18   99.84     LegendNANA
09:00 19.5 17.3 87 18 18   99.83     LegendNANA
10:00 17.9 14.7 82 20 28   99.79     LegendNANA
11:00 16.8 12.7 77 20 28   99.81     LegendNANA
12:00 16.5 12.8 79 21 31   99.80     LegendNANA
13:00 17.3 13.2 77 23 37   99.84     LegendNANA
14:00 16.6 13.1 80 23 31   99.92     LegendNANA
15:00 16.2 13.5 84 23 25   100.02     LegendNANA
16:00 16.7 13.0 78 23 26   100.08     LegendNANA
17:00 16.4 12.8 79 23 22   100.18     LegendNANA
18:00 16.5 13.0 80 22 17   100.27     LegendNANA
19:00 16.4 12.9 80 22 18   100.36     LegendNANA
20:00 15.8 12.9 83 23 20   100.44     LegendNANA
21:00 15.0 12.6 86 22 15   100.51     LegendNANA
22:00 14.5 12.6 89 22 16   100.50     LegendNANA
23:00 14.8 12.5 86 21 18   100.56     LegendNANA

Notes on Data Quality.

Legend

  • E = Estimated
  • M = Missing
  • NA = Not Available
  • ‡ = Partner data that is not subject to review by the National Climate Archives
Date modified: